Regional Weather Roundup
Issued by NWS

Home | Current Version | Previous Version | Graphics & Text | Print | Product List | Glossary On
Versions: 1 2 3 4 5 6 7 8 9 10 11 12 13 14 15 16 17 18 19 20 21 22 23 24 25 26 27 28 29 30 31 32 33 34 35 36 37 38 39 40 41 42 43 44 45 46 47 48 49 50
185
ASUS43 KLMK 252302
RWRKY
KENTUCKY REGIONAL WEATHER ROUNDUP
NATIONAL WEATHER SERVICE LOUISVILLE KY
700 PM EDT WED APR 25 2018

NOTE "FAIR" INDICATES FEW OR NO CLOUDS BELOW 12,000 FEET
WITH NO SIGNIFICANT WEATHER AND/OR OBSTRUCTIONS TO VISIBILITY.

KYZ001>023-026-027-061>063-070>075-260000-
WESTERN AND SOUTH CENTRAL KENTUCKY

CITY           SKY/WX    TMP DP  RH WIND       PRES   REMARKS
PADUCAH        PTSUNNY   71  47  42 CALM      29.93F
HENDERSON      FAIR      68  51  54 CALM      29.94F
OWENSBORO      FAIR      67  52  58 NW9       29.94F
HOPKINSVILLE   FAIR      67  50  52 W5        29.94F
BOWLING GREEN  CLOUDY    67  51  56 CALM      29.94F
GLASGOW        NOT AVBL
$$

KYZ024-025-028>034-038-045-046-053-260000-
NORTH CENTRAL KENTUCKY

CITY           SKY/WX    TMP DP  RH WIND       PRES   REMARKS
LOUISVILLE/SDF CLOUDY    67  47  48 NW3       29.92F
LOUISVILLE/LOU FAIR      67  48  50 N5        29.93F
FORT KNOX      FAIR      66  47  50 NW3       29.93F
$$

KYZ035>037-039>044-047>052-055>060-089>105-260000-
NORTHEAST KENTUCKY

CITY           SKY/WX    TMP DP  RH WIND       PRES   REMARKS
LEXINGTON      FAIR      63  48  58 N3        29.93F
COVINGTON      PTSUNNY   63  46  54 N10       29.91F
FRANKFORT      FAIR      65  44  46 NW6       29.91F
$$

KYZ054-064>069-076>088-106>120-260000-
SOUTHEAST KENTUCKY

CITY           SKY/WX    TMP DP  RH WIND       PRES   REMARKS
JACKSON        LGT RAIN  55  50  83 NW6       29.94S
LONDON         CLOUDY    55  53  93 W3        29.95S
SOMERSET       NOT AVBL
MIDDLESBORO    CLOUDY    56  52  86 NW8       29.96S
MONTICELLO     NOT AVBL
$$





USA.gov is the U.S. government's official web portal to all federal, state and local government web resources and services.